Weather History for Pasco, WA

Change the Weather History Date:

Friday, October 11, 2013

  Actual Average Record
Temperature  
Mean Temperature 54 °F 54 °F  
Max Temperature 65 °F 68 °F 83 °F (1952)
Min Temperature 42 °F 39 °F 19 °F (2009)
Degree Days  
Heating Degree Days 11 11  
Month to date heating degree days 145 104  
Since 1 July heating degree days 213 215  
Cooling Degree Days 0 0  
Month to date cooling degree days 0 0  
Year to date cooling degree days 995 709  
Growing Degree Days 3 (Base 50)    
Moisture  
Dew Point 40 °F    
Average Humidity 68    
Maximum Humidity 96    
Minimum Humidity 39    
Precipitation  
Precipitation 0.00 in - 0.48 in (1962)
Month to date precipitation 0.03  
Year to date precipitation 4.34  
Snow  
Snow 0.00 in - - ()
Snow Depth 0.00 in    
Sea Level Pressure  
Sea Level Pressure 30.07 in    
Wind  
Wind Speed 1 mph (North)    
Max Wind Speed 7 mph    
Max Gust Speed 9 mph    
Visibility 10 miles    
Events      
T = Trace of Precipitation, MM = Missing Value Source: NWS Daily Summary

Daily Weather History Graph

Daily Weather History Graph

Search for Another Location

Airport:

Trip Planner

Search our weather history database for the weather conditions in past years. The results will help you decide how hot, cold, wet, or windy it might be!

Date:

Astronomy

Oct. 11, 2013 Rise Set
Actual Time 7:08 AM PDT 6:16 PM PDT
Civil Twilight 6:38 AM PDT 6:46 PM PDT
Nautical Twilight 6:03 AM PDT 7:21 PM PDT
Astronomical Twilight 5:28 AM PDT 7:56 PM PDT
Moon 2:04 PM PDT (10/11) 11:58 PM PDT (10/11)
Length of Visible Light 12h 08m
Length of Day
11h 08m
Waxing Crescent, 48% of the Moon is Illuminated
Oct 11
Waxing Crescent
Oct 11
First Quarter
Oct 18
Full
Oct 26
Last Quarter
Nov 3
New

Hourly Weather History & Observations

Time (PDT) Temp. Windchill Dew Point Humidity Pressure Visibility Wind Dir Wind Speed Gust Speed Precip Events Conditions
12:53 AM 46.0 °F - 39.0 °F 76% 30.01 in 10.0 mi Calm Calm - N/A   Clear
1:53 AM 44.1 °F 42.5 °F 39.9 °F 85% 30.03 in 10.0 mi WSW 3.5 mph - N/A   Overcast
2:53 AM 45.0 °F - 39.9 °F 82% 30.04 in 10.0 mi Calm Calm - N/A   Overcast
3:53 AM 44.1 °F - 41.0 °F 89% 30.05 in 10.0 mi Calm Calm - N/A   Overcast
4:53 AM 43.0 °F 40.3 °F 41.0 °F 93% 30.06 in 10.0 mi North 4.6 mph - N/A   Overcast
5:53 AM 43.0 °F - 41.0 °F 93% 30.09 in 10.0 mi Calm Calm - N/A   Overcast
6:53 AM 44.1 °F - 42.1 °F 93% 30.09 in 10.0 mi Calm Calm - N/A   Overcast
7:53 AM 45.0 °F 43.5 °F 42.1 °F 90% 30.11 in 10.0 mi NNW 3.5 mph - N/A   Overcast
8:53 AM 46.9 °F - 44.1 °F 90% 30.12 in 10.0 mi Calm Calm - N/A   Overcast
9:53 AM 53.1 °F - 39.0 °F 59% 30.13 in 10.0 mi Calm Calm - N/A   Overcast
10:53 AM 55.9 °F - 39.0 °F 53% 30.13 in 10.0 mi Variable 3.5 mph - N/A   Overcast
11:53 AM 57.9 °F - 37.9 °F 47% 30.12 in 10.0 mi Calm Calm - N/A   Partly Cloudy
12:53 PM 57.9 °F - 37.9 °F 47% 30.11 in 10.0 mi Variable 3.5 mph - N/A   Overcast
1:53 PM 62.1 °F - 37.0 °F 39% 30.08 in 10.0 mi Calm Calm - N/A   Partly Cloudy
2:53 PM 63.0 °F - 37.0 °F 38% 30.07 in 10.0 mi NW 4.6 mph - N/A   Clear
3:53 PM 63.0 °F - 37.0 °F 38% 30.06 in 10.0 mi Calm Calm - N/A   Partly Cloudy
4:53 PM 62.1 °F - 37.9 °F 41% 30.05 in 10.0 mi Calm Calm - N/A   Clear
5:53 PM 61.0 °F - 39.9 °F 46% 30.05 in 10.0 mi Calm Calm - N/A   Clear
6:53 PM 59.0 °F - 42.1 °F 53% 30.04 in 10.0 mi South 5.8 mph - N/A   Overcast
7:53 PM 55.9 °F - 41.0 °F 57% 30.03 in 10.0 mi Calm Calm - N/A   Overcast
8:53 PM 54.0 °F - 39.9 °F 59% 30.03 in 10.0 mi Calm Calm - N/A   Mostly Cloudy
9:53 PM 52.0 °F - 43.0 °F 71% 30.03 in 10.0 mi ENE 5.8 mph - N/A   Mostly Cloudy
10:53 PM 53.1 °F - 42.1 °F 66% 30.03 in 10.0 mi East 3.5 mph - N/A   Overcast
11:53 PM 54.0 °F - 41.0 °F 62% 30.02 in 10.0 mi Calm Calm - N/A   Overcast